Regional Weather Roundup
Issued by NWS

Home | Current Version | Previous Version | Graphics & Text | Print | Product List | Glossary On
Versions: 1 2 3 4 5 6 7 8 9 10 11 12 13 14 15 16 17 18 19 20 21 22 23 24 25 26 27 28 29 30 31 32 33 34 35 36 37 38 39 40 41 42 43 44 45 46 47 48 49 50
000
ASUS43 KLOT 301100
RWRIL

ILLINOIS REGIONAL WEATHER ROUNDUP
NATIONAL WEATHER SERVICE CHICAGO/ROMEOVILLE IL
600 AM CDT THU OCT 30 2014

NOTE: "FAIR" INDICATES FEW OR NO CLOUDS BELOW 12,000 FEET WITH NO
SIGNIFICANT WEATHER AND/OR OBSTRUCTIONS TO VISIBILITY.

* THESE STATIONS ARE NOT UNDER NWS QUALITY CONTROL. THEY ALSO MAY NOT
  REPORT WEATHER SUCH AS PRECIPITATION OR FOG.

ILZ001-002-007-009-015-016-024-301200-
NORTHWEST ILLINOIS

CITY           SKY/WX    TMP DP  RH WIND       PRES   REMARKS
MOLINE         MOCLDY    33  30  88 CALM      30.13R
STERLING*      PTCLDY    30  25  80 CALM      30.13R
$$

ILZ003-004-008-010-011-017-018-301200-
NORTH CENTRAL ILLINOIS

CITY           SKY/WX    TMP DP  RH WIND       PRES   REMARKS
ROCKFORD       PTCLDY    32  28  85 CALM      30.14F
$$

ILZ005-006-012>014-019>023-301200-
NORTHEAST ILLINOIS

CITY           SKY/WX    TMP DP  RH WIND       PRES   REMARKS
CHICAGO-OHARE  PTCLDY    34  31  88 CALM      30.13S
CHICAGO-MIDWAY PTCLDY    37  32  82 SW5       30.14R WCI  33
AURORA         CLEAR     28  24  85 CALM      30.15R
WAUKEGAN       PTCLDY    35  31  85 SW3       30.12R
DUPAGE AIRPORT CLEAR     31  29  92 CALM      30.14R
WHEELING       PTCLDY    34  30  85 CALM      30.15R
NORTHERLY ISL    N/A     42  34  73 SW5         N/A
$$

LMZ740>746-301200-
SOUTHERN LAKE MICHIGAN

STATION/POSITION SKY/WX   TEMP    WIND        PRES    VSBY  WAVE
                          AIR SEA DIR/SP/G                  HT/PER
                          (F)     (DEG/KT/KT) (MB)    (MI)  (FT/S)
SOUTHERN BUOY              47 53  240/  4/  6 1020.2F         2/ 5
WAUKEGAN HARBOR            39     260/  8/  9   N/A
HARRISON CRIB              44     270/  5/  6   N/A
BURNHAM HARBOR             42     240/  3/  6   N/A
CALUMET HARBOR             39     210/  4/  5 1019.3S
MICHIGAN CITY              46     200/ 11/ 12   N/A
$$

ILZ025>027-034>036-040-047-049-050-058-095>099-301200-
WEST-CENTRAL ILLINOIS

CITY           SKY/WX    TMP DP  RH WIND       PRES   REMARKS
QUINCY         CLOUDY    41  35  79 SE8       30.11F
$$

ILZ028>032-037-038-041>044-048-051>054-059>061-301200-
CENTRAL ILLINOIS

CITY           SKY/WX    TMP DP  RH WIND       PRES   REMARKS
DECATUR        CLEAR     35  32  88 S3        30.16S
PEORIA         CLEAR     37  32  82 CALM      30.15R
SPRINGFIELD    CLEAR     38  34  85 S3        30.16S
TAYLORVILLE    NOT AVBL
$$

ILZ033-039-045-046-055>057-062-063-301200-
EAST-CENTRAL ILLINOIS

CITY           SKY/WX    TMP DP  RH WIND       PRES   REMARKS
CHAMPAIGN      CLEAR     30  29  96 S5        30.16S WCI  25
MATTOON        CLEAR     34  32  92 S5        30.15S WCI  30
$$

ILZ079-100>102-301200-
SOUTHWEST ILLINOIS

CITY           SKY/WX    TMP DP  RH WIND       PRES   REMARKS
BELLEVILLE     CLEAR     35  35  99 CALM      30.16R
CAHOKIA*       CLEAR     35  34  96 CALM      30.16S
$$

ILZ064>066-069>071-074>076-080>082-084>086-088>090-092>094-301200-
SOUTH-CENTRAL ILLINOIS

CITY           SKY/WX    TMP DP  RH WIND       PRES   REMARKS
CARBONDALE     CLEAR     32  31  96 CALM      30.17S
MT. VERNON     CLEAR     30  27  86 CALM      30.17S
$$

ILZ067-068-072-073-078-083-087-091-301200-
SOUTHEAST ILLINOIS

CITY           SKY/WX    TMP DP  RH WIND       PRES   REMARKS
LAWRENCEVILLE  CLEAR     35  32  88 CALM      30.19S FOG
$$

ABBREVIATIONS USED IN REMARKS
   TC - TEMPERATURE IN CELSIUS
  WCI - WIND CHILL INDEX
   HX - HEAT INDEX
  VSB - VISIBILITY
$$




USA.gov is the U.S. government's official web portal to all federal, state and local government web resources and services.